Location: Kikino
(54.4440°N, 112.0940°W)
Time: 06:25:14
(UTC+00:00)

Transit 2A Rocket - Pass Details

Date: 25 May 2024
Orbit: 583 x 910 km, 66.7° (Epoch: 23 June)

Event Time Altitude Azimuth Distance (km) Brightness Sun altitude
Exits shadow 09:39:36 - 166° (SSE) 2,816 7.5 -9.2°
Reaches altitude 10° 09:41:50 10° 151° (SSE) 2,153 7.1 -9.0°
Maximum altitude 09:45:13 19° 107° (ESE) 1,708 7.0 -8.8°
Drops below altitude 10° 09:48:48 10° 64° (ENE) 2,315 8.5 -8.5°
Sets 09:51:57 0° 48° (NE) 3,315 10.2 -8.2°
